• In Hungary
  • List of Countries
  • For 7 days
  • Water Temperature
  • Satellite Maps
  • Weather Map
  • News
  • Weather Widgets
  • user-avatar
    Login

    Hourly Weather Rokycany

    Today, 24 February, Saturday

    Time Temperature Precipitation Wind Pressure Humidity
    00:00 -9°C° 0 mm 4 mps 732 mmHg 67%
    01:00 -9°C° 0 mm 4 mps 732 mmHg 67%
    02:00 -8°C° 0 mm 3 mps 732 mmHg 67%
    03:00 -8°C° 0 mm 3 mps 732 mmHg 66%
    04:00 -9°C° 0 mm 3 mps 732 mmHg 65%
    05:00 -9°C° 0 mm 3 mps 732 mmHg 64%
    06:00 -9°C° 0 mm 3 mps 733 mmHg 63%
    07:00 -8°C° 0 mm 2 mps 733 mmHg 62%
    08:00 -8°C° 0 mm 3 mps 733 mmHg 59%
    09:00 -8°C° 0 mm 4 mps 733 mmHg 56%
    10:00 -5°C° 0 mm 4 mps 734 mmHg 54%
    11:00 -6°C° 0 mm 5 mps 734 mmHg 53%
    12:00 -5°C° 0 mm 5 mps 733 mmHg 52%
    13:00 -4°C° 0 mm 5 mps 733 mmHg 52%
    14:00 -5°C° 0 mm 5 mps 733 mmHg 50%
    15:00 -5°C° 0 mm 6 mps 733 mmHg 49%
    16:00 -5°C° 0 mm 6 mps 733 mmHg 47%
    17:00 -6°C° 0 mm 6 mps 734 mmHg 50%
    18:00 -7°C° 0 mm 5 mps 734 mmHg 53%
    19:00 -8°C° 0 mm 5 mps 735 mmHg 56%
    20:00 -8°C° 0 mm 5 mps 735 mmHg 58%
    21:00 -10°C° 0 mm 5 mps 735 mmHg 59%
    22:00 -10°C° 0 mm 5 mps 735 mmHg 61%
    23:00 -11°C° 0 mm 5 mps 735 mmHg 59%

    Tomorrow, 25 February, Sunday

    Time Temperature Precipitation Wind Pressure Humidity
    00:00 -11°C° 0 mm 5 mps 736 mmHg 58%
    01:00 -11°C° 0 mm 5 mps 736 mmHg 57%
    02:00 -11°C° 0 mm 4 mps 736 mmHg 57%
    03:00 -11°C° 0 mm 4 mps 736 mmHg 57%
    04:00 -11°C° 0 mm 4 mps 735 mmHg 57%
    05:00 -12°C° 0 mm 4 mps 736 mmHg 59%
    06:00 -12°C° 0 mm 4 mps 736 mmHg 61%
    07:00 -12°C° 0 mm 4 mps 736 mmHg 64%
    08:00 -12°C° 0 mm 4 mps 736 mmHg 60%
    09:00 -11°C° 0 mm 4 mps 736 mmHg 57%
    10:00 -11°C° 0 mm 5 mps 736 mmHg 54%
    11:00 -11°C° 0 mm 5 mps 736 mmHg 50%
    12:00 -10°C° 0 mm 5 mps 735 mmHg 46%
    13:00 -8°C° 0 mm 5 mps 735 mmHg 42%
    14:00 -8°C° 0 mm 5 mps 735 mmHg 41%
    15:00 -8°C° 0 mm 5 mps 734 mmHg 39%
    16:00 -8°C° 0 mm 5 mps 734 mmHg 38%
    17:00 -10°C° 0 mm 5 mps 734 mmHg 41%
    18:00 -10°C° 0 mm 5 mps 734 mmHg 43%
    19:00 -10°C° 0 mm 4 mps 735 mmHg 46%
    20:00 -10°C° 0 mm 4 mps 735 mmHg 47%
    21:00 -12°C° 0 mm 5 mps 735 mmHg 49%
    22:00 -12°C° 0 mm 5 mps 735 mmHg 51%
    23:00 -11°C° 0 mm 4 mps 735 mmHg 52%

    Day after tomorrow, 26 February, Monday

    Time Temperature Precipitation Wind Pressure Humidity
    00:00 -12°C° 0 mm 4 mps 735 mmHg 54%
    01:00 -12°C° 0 mm 4 mps 734 mmHg 55%
    02:00 -12°C° 0 mm 4 mps 734 mmHg 57%
    03:00 -14°C° 0 mm 4 mps 734 mmHg 58%
    04:00 -14°C° 0 mm 4 mps 734 mmHg 59%
    05:00 -14°C° 0 mm 4 mps 734 mmHg 60%
    06:00 -14°C° 0 mm 4 mps 734 mmHg 61%
    07:00 -14°C° 0 mm 4 mps 734 mmHg 63%
    08:00 -14°C° 0 mm 5 mps 734 mmHg 60%
    09:00 -13°C° 0 mm 5 mps 734 mmHg 56%
    10:00 -12°C° 0 mm 5 mps 734 mmHg 53%
    11:00 -11°C° 0 mm 5 mps 733 mmHg 50%
    12:00 -11°C° 0 mm 5 mps 733 mmHg 47%
    13:00 -10°C° 0 mm 5 mps 733 mmHg 44%
    14:00 -10°C° 0 mm 5 mps 732 mmHg 44%
    15:00 -10°C° 0 mm 5 mps 732 mmHg 44%
    16:00 -10°C° 0 mm 5 mps 732 mmHg 44%
    17:00 -10°C° 0 mm 5 mps 732 mmHg 47%
    18:00 -11°C° 0 mm 5 mps 731 mmHg 50%
    19:00 -12°C° 0 mm 5 mps 731 mmHg 52%
    20:00 -12°C° 0 mm 5 mps 731 mmHg 54%
    21:00 -11°C° 0 mm 4 mps 731 mmHg 55%
    22:00 -12°C° 0 mm 4 mps 731 mmHg 56%
    23:00 -12°C° 0 mm 4 mps 731 mmHg 57%

    27 February, Tuesday

    Time Temperature Precipitation Wind Pressure Humidity
    00:00 -12°C° 0 mm 4 mps 731 mmHg 58%
    01:00 -14°C° 0 mm 4 mps 730 mmHg 59%
    02:00 -14°C° 0 mm 4 mps 730 mmHg 60%
    03:00 -13°C° 0 mm 3 mps 730 mmHg 61%
    04:00 -13°C° 0 mm 3 mps 729 mmHg 62%
    05:00 -14°C° 0 mm 3 mps 729 mmHg 63%
    06:00 -14°C° 0 mm 3 mps 729 mmHg 64%
    07:00 -14°C° 0 mm 3 mps 729 mmHg 65%
    08:00 -14°C° 0 mm 3 mps 729 mmHg 61%
    09:00 -13°C° 0 mm 3 mps 729 mmHg 58%
    10:00 -12°C° 0 mm 3 mps 729 mmHg 55%
    11:00 -12°C° 0 mm 3 mps 729 mmHg 51%
    12:00 -10°C° 0 mm 3 mps 729 mmHg 48%
    13:00 -9°C° 0 mm 3 mps 728 mmHg 45%
    14:00 -9°C° 0 mm 3 mps 728 mmHg 44%
    15:00 -9°C° 0 mm 3 mps 728 mmHg 44%
    16:00 -9°C° 0 mm 3 mps 728 mmHg 43%
    17:00 -9°C° 0 mm 3 mps 728 mmHg 46%
    18:00 -10°C° 0 mm 3 mps 728 mmHg 48%
    19:00 -12°C° 0 mm 3 mps 728 mmHg 51%
    20:00 -10°C° 0 mm 2 mps 728 mmHg 52%
    21:00 -10°C° 0 mm 2 mps 728 mmHg 54%
    22:00 -10°C° 0 mm 2 mps 729 mmHg 56%
    23:00 -12°C° 0 mm 2 mps 728 mmHg 57%

    28 February, Wednesday

    Time Temperature Precipitation Wind Pressure Humidity
    00:00 -12°C° 0 mm 2 mps 728 mmHg 59%
    01:00 -12°C° 0 mm 2 mps 728 mmHg 60%
    02:00 -13°C° 0 mm 2 mps 728 mmHg 61%
    03:00 -13°C° 0 mm 2 mps 728 mmHg 62%
    04:00 -13°C° 0 mm 2 mps 728 mmHg 63%
    05:00 -13°C° 0 mm 2 mps 728 mmHg 64%
    06:00 -13°C° 0 mm 2 mps 729 mmHg 66%
    07:00 -14°C° 0 mm 2 mps 729 mmHg 67%
    08:00 -13°C° 0 mm 2 mps 729 mmHg 63%
    09:00 -12°C° 0 mm 2 mps 729 mmHg 58%
    10:00 -12°C° 0 mm 3 mps 730 mmHg 54%
    11:00 -10°C° 0 mm 3 mps 729 mmHg 50%
    12:00 -9°C° 0 mm 3 mps 729 mmHg 47%
    13:00 -9°C° 0 mm 3 mps 729 mmHg 43%
    14:00 -8°C° 0 mm 3 mps 729 mmHg 43%
    15:00 -8°C° 0 mm 3 mps 729 mmHg 43%
    16:00 -8°C° 0 mm 3 mps 728 mmHg 43%
    17:00 -9°C° 0 mm 3 mps 728 mmHg 46%
    18:00 -9°C° 0 mm 3 mps 729 mmHg 48%
    19:00 -10°C° 0 mm 3 mps 729 mmHg 51%
    20:00 -10°C° 0 mm 3 mps 729 mmHg 53%
    21:00 -11°C° 0 mm 4 mps 728 mmHg 55%
    22:00 -12°C° 0 mm 4 mps 728 mmHg 57%
    23:00 -12°C° 0 mm 4 mps 728 mmHg 60%

    1 March, Thursday

    Time Temperature Precipitation Wind Pressure Humidity
    00:00 -12°C° 0 mm 4 mps 727 mmHg 62%
    01:00 -12°C° 0 mm 4 mps 727 mmHg 65%
    02:00 -12°C° 0 mm 4 mps 726 mmHg 68%
    03:00 -12°C° 0 mm 4 mps 726 mmHg 70%
    04:00 -12°C° 0 mm 4 mps 725 mmHg 73%
    05:00 -12°C° 0 mm 4 mps 725 mmHg 74%
    06:00 -12°C° 0 mm 4 mps 724 mmHg 75%
    07:00 -13°C° 0 mm 5 mps 724 mmHg 76%
    08:00 -12°C° 0 mm 5 mps 723 mmHg 72%
    09:00 -12°C° 0 mm 5 mps 723 mmHg 68%
    10:00 -11°C° 0 mm 6 mps 723 mmHg 63%
    11:00 -10°C° 0 mm 6 mps 722 mmHg 60%
    12:00 -8°C° 0 mm 6 mps 722 mmHg 57%
    13:00 -6°C° 0 mm 6 mps 721 mmHg 53%
    14:00 -6°C° 0 mm 6 mps 721 mmHg 56%
    15:00 -6°C° 0 mm 6 mps 720 mmHg 58%
    16:00 -6°C° 0 mm 6 mps 720 mmHg 61%
    17:00 -6°C° 0 mm 5 mps 720 mmHg 65%
    18:00 -7°C° 0 mm 5 mps 720 mmHg 70%
    19:00 -7°C° 0 mm 5 mps 719 mmHg 75%
    20:00 -7°C° 0 mm 4 mps 719 mmHg 78%
    21:00 -7°C° 0 mm 4 mps 719 mmHg 82%
    22:00 -7°C° 0 mm 4 mps 719 mmHg 85%
    23:00 -7°C° 0 mm 4 mps 718 mmHg 86%
    Show more